Flag for Germany Weather past 2 weeks in Berlin, Berlin, Germany

Now
75 °F

Mild.


Feels Like: 77 °F
Forecast: 56 / 67 °F
Wind: 5 mph from South

Location: Berlin-Tempelhof

Current Time: May 5, 2015 at 5:19:01 PM

Latest Report: May 5, 2015 at 5:00 PM


Visibility: N/A

Pressure: 29.62 "Hg

Humidity: 58%

Dew point: 59 °F

Location of BerlinLocation

Historic Weather in Berlin — Graph

°F

Berlin temperature yesterday

Maximum temperature yesterday: 73 °F (at 4:00 PM)
Minimum temperature yesterday: 56 °F (at 1:00 AM)
Average temperature yesterday: 64 °F

Past Weeks' High & Low Weather Summary

 TemperatureHumidityPressure
High75 °F (May 5, 4:00 PM)99% (Apr 27, 6:00 AM)30.32 "Hg (Apr 27, 6:00 AM)
Low38 °F (Apr 29, 6:00 AM)24% (Apr 21, 3:00 PM)29.59 "Hg (Apr 27, 10:00 AM)
Average54 °F64%29.92 "Hg
* Reported Apr 20 4:00 PM — May 5 4:00 PM, Berlin, Weather by CustomWeather, © 2015

Note: Actual official high and low records may vary slightly from our data, if they occured in-between our weather recording intervals... More about our weather records

Advertising

Berlin weather history for previous 24 hours

 ConditionsComfort  
Time TempWeatherWind HumidityBarometerVisibility
4:00 PM
Tue, May 5
75 °FMild.3 mph61%29.63 "HgN/A
3:00 PM72 °FMild.3 mph66%29.66 "HgN/A
2:00 PM73 °FMild.6 mph61%29.65 "HgN/A
1:00 PM72 °FMild.3 mph64%29.64 "HgN/A
12:00 PM70 °FMild.5 mph66%29.64 "HgN/A
11:00 AM68 °FMild.5 mph70%29.63 "HgN/A
10:00 AM66 °FMild.7 mph71%29.65 "HgN/A
9:00 AM63 °FMild.6 mph78%29.67 "HgN/A
8:00 AM60 °FCool.3 mph81%29.69 "HgN/A
7:00 AM60 °FCool.3 mph79%29.70 "HgN/A
6:00 AM59 °FCool.3 mph80%29.70 "HgN/A
5:00 AM58 °FCool.5 mph77%29.72 "HgN/A
4:00 AM58 °FCool.3 mph77%29.74 "HgN/A
3:00 AM58 °FCool.3 mph79%29.76 "HgN/A
2:00 AM58 °FCool.3 mph78%29.78 "HgN/A
1:00 AM60 °FCool.3 mph75%29.79 "HgN/A
12:00 AM61 °FCool.3 mph72%29.80 "HgN/A
11:00 PM
Mon, May 4
63 °FMild.3 mph66%29.81 "HgN/A
10:00 PM64 °FMild.3 mph64%29.82 "HgN/A
9:00 PM67 °FMild.2 mph57%29.82 "HgN/A
8:00 PM70 °FMild.2 mph51%29.82 "HgN/A
7:00 PM71 °FMild.2 mph48%29.82 "HgN/A
6:00 PM71 °FMild.2 mph47%29.82 "HgN/A
5:00 PM70 °FMild.5 mph47%29.81 "HgN/A
Weather by CustomWeather, © 2015

See weather overviewHow to use our weather pages